WZZ4937 EDDH-EPGD

Flight info

Callsign WZZ4937
Flight time 1h 0m
Altitude 35000
Route RAMAR L23 GEVNI DCT BINKA DCT LUXAL L730 KOSEX
Aircraft A320/M-SDE3FGHIRWY/LB1

Departure

Time 2026-05-06 11:57
Airport Hamburg Helmut Schmidt Airport (EDDH)

Arrival

Time 2026-05-06 12:57
Airport Gdańsk Lech Wałęsa Airport (EPGD)
Time Latitude Longitude Altitude Speed Heading
2026-05-06 11:28 53.62809 10.00246 47 ft 0 kts 63°
2026-05-06 11:46 53.62801 10.00215 47 ft 4 kts 79°
2026-05-06 11:46 53.62800 10.00170 44 ft 4 kts 104°
2026-05-06 11:46 53.62810 10.00129 45 ft 4 kts 123°
2026-05-06 11:47 53.62827 10.00094 47 ft 4 kts 138°
2026-05-06 11:47 53.62848 10.00068 45 ft 3 kts 152°
2026-05-06 11:47 53.62870 10.00053 46 ft 4 kts 180°
2026-05-06 11:47 53.62895 10.00064 44 ft 4 kts 214°
2026-05-06 11:48 53.62916 10.00092 47 ft 4 kts 216°
2026-05-06 11:48 53.62922 10.00099 48 ft 0 kts 212°
2026-05-06 11:50 53.62920 10.00097 47 ft 2 kts 210°
2026-05-06 11:50 53.62893 10.00072 44 ft 7 kts 211°
2026-05-06 11:50 53.62851 10.00018 46 ft 9 kts 219°
2026-05-06 11:51 53.62793 9.99950 47 ft 12 kts 209°
2026-05-06 11:51 53.62710 9.99874 45 ft 15 kts 208°
2026-05-06 11:51 53.62642 9.99766 47 ft 14 kts 248°
2026-05-06 11:51 53.62620 9.99599 45 ft 16 kts 259°
2026-05-06 11:52 53.62598 9.99406 47 ft 18 kts 259°
2026-05-06 11:52 53.62574 9.99192 47 ft 19 kts 259°
2026-05-06 11:52 53.62548 9.98960 44 ft 21 kts 259°
2026-05-06 11:52 53.62520 9.98719 43 ft 21 kts 259°
2026-05-06 11:53 53.62492 9.98466 47 ft 20 kts 259°
2026-05-06 11:53 53.62464 9.98231 45 ft 21 kts 254°
2026-05-06 11:53 53.62390 9.98011 47 ft 23 kts 231°
2026-05-06 11:53 53.62286 9.97799 47 ft 25 kts 229°
2026-05-06 11:54 53.62200 9.97625 47 ft 13 kts 234°
2026-05-06 11:54 53.62182 9.97467 46 ft 15 kts 288°
2026-05-06 11:54 53.62207 9.97407 44 ft 0 kts 317°
2026-05-06 11:55 53.62211 9.97402 43 ft 3 kts 317°
2026-05-06 11:55 53.62242 9.97352 41 ft 9 kts 317°
2026-05-06 11:56 53.62270 9.97313 40 ft 2 kts 323°
2026-05-06 11:56 53.62310 9.97347 38 ft 11 kts 51°
2026-05-06 11:56 53.62435 9.97601 40 ft 59 kts 50°
2026-05-06 11:56 53.62833 9.98404 44 ft 116 kts 50°
2026-05-06 11:57 53.63441 9.99650 162 ft 151 kts 51°
2026-05-06 11:57 53.64111 10.00999 816 ft 149 kts 51°
2026-05-06 11:57 53.64760 10.02341 1443 ft 154 kts 51°
2026-05-06 11:57 53.65479 10.03867 1696 ft 176 kts 52°
2026-05-06 11:58 53.66294 10.05582 1993 ft 199 kts 52°
2026-05-06 11:58 53.67180 10.07431 2781 ft 200 kts 53°
2026-05-06 11:58 53.68034 10.09239 3738 ft 197 kts 53°
2026-05-06 11:58 53.68897 10.11081 4472 ft 204 kts 53°
2026-05-06 11:59 53.69784 10.12980 5215 ft 208 kts 53°
2026-05-06 11:59 53.70696 10.14927 5957 ft 214 kts 53°
2026-05-06 11:59 53.71434 10.17125 6592 ft 224 kts 71°
2026-05-06 11:59 53.71894 10.19774 6929 ft 247 kts 74°
2026-05-06 12:00 53.72372 10.22676 7407 ft 264 kts 74°
2026-05-06 12:00 53.72867 10.25702 8153 ft 271 kts 74°
2026-05-06 12:00 53.73374 10.28793 8924 ft 276 kts 74°
2026-05-06 12:00 53.73896 10.31957 9668 ft 283 kts 74°
2026-05-06 12:01 53.74436 10.35215 10209 ft 296 kts 75°
2026-05-06 12:01 53.75004 10.38648 10405 ft 319 kts 75°
2026-05-06 12:01 53.75614 10.42334 10857 ft 331 kts 75°
2026-05-06 12:01 53.76238 10.46107 11504 ft 335 kts 76°
2026-05-06 12:02 53.76866 10.49912 12208 ft 338 kts 77°
2026-05-06 12:02 53.77497 10.53756 12872 ft 341 kts 77°
2026-05-06 12:02 53.78133 10.57650 13520 ft 346 kts 77°
2026-05-06 12:02 53.78776 10.61604 14038 ft 352 kts 76°
2026-05-06 12:03 53.79159 10.65698 14555 ft 354 kts 90°
2026-05-06 12:03 53.79008 10.69853 15066 ft 355 kts 103°
2026-05-06 12:03 53.78320 10.73863 15607 ft 356 kts 115°
2026-05-06 12:03 53.77141 10.77553 16171 ft 358 kts 125°
2026-05-06 12:04 53.75804 10.81136 16756 ft 362 kts 124°
2026-05-06 12:04 53.74462 10.84748 17406 ft 364 kts 124°
2026-05-06 12:04 53.73119 10.88382 18013 ft 367 kts 123°
2026-05-06 12:04 53.72018 10.92303 18523 ft 374 kts 111°
2026-05-06 12:05 53.71393 10.96594 19021 ft 380 kts 100°
2026-05-06 12:05 53.71289 11.01084 19508 ft 387 kts 89°
2026-05-06 12:05 53.71440 11.05650 19996 ft 391 kts 89°
2026-05-06 12:05 53.71588 11.10250 20479 ft 394 kts 89°
2026-05-06 12:06 53.71727 11.14883 20959 ft 397 kts 89°
2026-05-06 12:06 53.71862 11.19556 21427 ft 400 kts 89°
2026-05-06 12:06 53.71996 11.24262 21901 ft 403 kts 89°
2026-05-06 12:06 53.72129 11.28999 22352 ft 406 kts 89°
2026-05-06 12:07 53.72262 11.33777 22830 ft 408 kts 89°
2026-05-06 12:07 53.72391 11.38580 23301 ft 411 kts 89°
2026-05-06 12:07 53.72519 11.43417 23716 ft 414 kts 89°
2026-05-06 12:07 53.72650 11.48282 24150 ft 416 kts 89°
2026-05-06 12:08 53.72777 11.53166 24565 ft 418 kts 89°
2026-05-06 12:08 53.72900 11.58083 24978 ft 420 kts 89°
2026-05-06 12:08 53.73017 11.63016 25379 ft 421 kts 89°
2026-05-06 12:08 53.73131 11.67972 25766 ft 423 kts 89°
2026-05-06 12:09 53.73205 11.71260 26029 ft 424 kts 89°
2026-05-06 12:09 53.73318 11.76247 26418 ft 426 kts 89°
2026-05-06 12:09 53.73430 11.81253 26796 ft 427 kts 90°
2026-05-06 12:09 53.73544 11.86274 27177 ft 429 kts 90°
2026-05-06 12:10 53.73662 11.91314 27534 ft 431 kts 89°
2026-05-06 12:10 53.73779 11.96374 27908 ft 432 kts 90°
2026-05-06 12:10 53.73894 12.01454 28312 ft 434 kts 89°
2026-05-06 12:10 53.74005 12.06559 28713 ft 435 kts 90°
2026-05-06 12:11 53.74117 12.11674 29080 ft 437 kts 90°
2026-05-06 12:11 53.74233 12.16818 29433 ft 439 kts 90°
2026-05-06 12:11 53.74353 12.21979 29799 ft 441 kts 89°
2026-05-06 12:11 53.74473 12.27162 30121 ft 442 kts 90°
2026-05-06 12:12 53.74590 12.32366 30407 ft 444 kts 89°
2026-05-06 12:12 53.74705 12.37580 30791 ft 444 kts 90°
2026-05-06 12:12 53.74815 12.42783 31189 ft 443 kts 89°
2026-05-06 12:12 53.74921 12.47981 31586 ft 443 kts 90°
2026-05-06 12:13 53.75015 12.53176 32025 ft 442 kts 90°
2026-05-06 12:13 53.75093 12.58363 32507 ft 441 kts 91°
2026-05-06 12:13 53.75159 12.63552 32950 ft 442 kts 91°
2026-05-06 12:13 53.75219 12.68757 33273 ft 444 kts 91°
2026-05-06 12:14 53.75276 12.73977 33630 ft 445 kts 91°
2026-05-06 12:14 53.75332 12.79201 33977 ft 445 kts 91°
2026-05-06 12:14 53.75398 12.84431 34264 ft 446 kts 91°
2026-05-06 12:14 53.75476 12.89671 34542 ft 447 kts 91°
2026-05-06 12:15 53.75559 12.94921 34776 ft 448 kts 91°
2026-05-06 12:15 53.75641 13.00195 34849 ft 450 kts 91°
2026-05-06 12:15 53.75790 13.10766 34858 ft 450 kts 91°
2026-05-06 12:16 53.75917 13.21304 34859 ft 453 kts 91°
2026-05-06 12:16 53.76035 13.31971 34854 ft 454 kts 91°
2026-05-06 12:17 53.76141 13.42619 34845 ft 453 kts 91°
2026-05-06 12:17 53.76231 13.53267 34852 ft 453 kts 92°
2026-05-06 12:18 53.76224 13.63899 34850 ft 452 kts 93°
2026-05-06 12:18 53.76181 13.74540 34826 ft 453 kts 93°
2026-05-06 12:19 53.76144 13.85215 34832 ft 455 kts 93°
2026-05-06 12:19 53.76106 13.95925 34828 ft 456 kts 93°
2026-05-06 12:20 53.76061 14.06643 34852 ft 457 kts 93°
2026-05-06 12:20 53.76007 14.17382 34858 ft 457 kts 93°
2026-05-06 12:21 53.76018 14.28135 34845 ft 460 kts 88°
2026-05-06 12:21 53.76831 14.38909 34841 ft 463 kts 85°
2026-05-06 12:22 53.77668 14.49641 34838 ft 464 kts 85°
2026-05-06 12:22 53.78500 14.60464 34812 ft 464 kts 85°
2026-05-06 12:23 53.79313 14.71276 34816 ft 464 kts 85°
2026-05-06 12:23 53.80109 14.82108 34799 ft 464 kts 85°
2026-05-06 12:24 53.80906 14.92967 34801 ft 466 kts 85°
2026-05-06 12:24 53.81697 15.03847 34837 ft 466 kts 85°
2026-05-06 12:25 53.82473 15.14732 34846 ft 465 kts 85°
2026-05-06 12:25 53.83238 15.25598 34726 ft 464 kts 85°
2026-05-06 12:26 53.83616 15.30989 34341 ft 460 kts 85°
2026-05-06 12:26 53.83990 15.36355 33827 ft 459 kts 85°
2026-05-06 12:26 53.84360 15.41707 33272 ft 456 kts 85°
2026-05-06 12:26 53.84721 15.47020 32771 ft 453 kts 85°
2026-05-06 12:27 53.85079 15.52304 32264 ft 450 kts 85°
2026-05-06 12:27 53.85434 15.57556 31758 ft 447 kts 85°
2026-05-06 12:27 53.85788 15.62762 31247 ft 444 kts 85°
2026-05-06 12:27 53.86137 15.67940 30769 ft 440 kts 85°
2026-05-06 12:28 53.86477 15.73079 30284 ft 437 kts 85°
2026-05-06 12:28 53.86812 15.78176 29789 ft 434 kts 84°
2026-05-06 12:28 53.87144 15.83245 29291 ft 430 kts 85°
2026-05-06 12:28 53.87468 15.88253 28835 ft 425 kts 85°
2026-05-06 12:29 53.87787 15.93205 28377 ft 421 kts 86°
2026-05-06 12:29 53.88103 15.98108 27953 ft 417 kts 86°
2026-05-06 12:29 53.88413 16.02968 27525 ft 413 kts 86°
2026-05-06 12:29 53.88719 16.07791 27105 ft 410 kts 86°
2026-05-06 12:30 53.89020 16.12585 26686 ft 408 kts 86°
2026-05-06 12:30 53.89317 16.17354 26263 ft 406 kts 86°
2026-05-06 12:30 53.89610 16.22103 25847 ft 404 kts 86°
2026-05-06 12:30 53.89902 16.26831 25417 ft 402 kts 86°
2026-05-06 12:31 53.90192 16.31538 24988 ft 401 kts 86°
2026-05-06 12:31 53.90480 16.36227 24546 ft 399 kts 86°
2026-05-06 12:31 53.90761 16.40902 24106 ft 398 kts 86°
2026-05-06 12:31 53.91036 16.45562 23651 ft 397 kts 86°
2026-05-06 12:32 53.91357 16.50209 23134 ft 397 kts 82°
2026-05-06 12:32 53.92103 16.54712 22687 ft 397 kts 70°
2026-05-06 12:32 53.93330 16.58893 22256 ft 395 kts 59°
2026-05-06 12:32 53.94831 16.62784 21816 ft 392 kts 58°
2026-05-06 12:33 53.96322 16.66641 21383 ft 389 kts 58°
2026-05-06 12:33 53.97800 16.70478 20953 ft 387 kts 58°
2026-05-06 12:33 53.99245 16.74242 20539 ft 385 kts 58°
2026-05-06 12:33 54.00699 16.78043 20114 ft 382 kts 58°
2026-05-06 12:34 54.02144 16.81826 19688 ft 380 kts 58°
2026-05-06 12:34 54.03580 16.85587 19262 ft 379 kts 58°
2026-05-06 12:34 54.05010 16.89342 18834 ft 377 kts 58°
2026-05-06 12:34 54.06431 16.93081 18409 ft 375 kts 58°
2026-05-06 12:35 54.07846 16.96805 17984 ft 374 kts 59°
2026-05-06 12:35 54.09081 17.00665 17542 ft 368 kts 70°
2026-05-06 12:35 54.09839 17.04770 17145 ft 360 kts 82°
2026-05-06 12:35 54.10159 17.08954 16752 ft 354 kts 89°
2026-05-06 12:36 54.10393 17.13115 16363 ft 352 kts 88°
2026-05-06 12:36 54.10628 17.17249 15964 ft 349 kts 89°
2026-05-06 12:36 54.10859 17.21348 15593 ft 347 kts 89°
2026-05-06 12:36 54.11085 17.25434 15210 ft 345 kts 89°
2026-05-06 12:37 54.11309 17.29499 14832 ft 344 kts 89°
2026-05-06 12:37 54.11533 17.33547 14455 ft 343 kts 89°
2026-05-06 12:37 54.11756 17.37585 14073 ft 342 kts 89°
2026-05-06 12:37 54.11975 17.41613 13691 ft 341 kts 90°
2026-05-06 12:38 54.12189 17.45626 13288 ft 340 kts 89°
2026-05-06 12:38 54.12401 17.49605 13072 ft 332 kts 89°
2026-05-06 12:38 54.12624 17.53489 12789 ft 328 kts 86°
2026-05-06 12:38 54.13058 17.57304 12208 ft 328 kts 82°
2026-05-06 12:39 54.13515 17.61098 11877 ft 326 kts 82°
2026-05-06 12:39 54.13965 17.64872 11592 ft 323 kts 82°
2026-05-06 12:39 54.14411 17.68636 11208 ft 322 kts 82°
2026-05-06 12:39 54.14844 17.72296 10822 ft 317 kts 82°
2026-05-06 12:40 54.15276 17.75952 10311 ft 311 kts 83°
2026-05-06 12:40 54.15696 17.79512 9962 ft 301 kts 83°
2026-05-06 12:40 54.16102 17.82967 9617 ft 296 kts 83°
2026-05-06 12:40 54.16504 17.86418 9249 ft 296 kts 83°
2026-05-06 12:41 54.16905 17.89868 8905 ft 296 kts 83°
2026-05-06 12:41 54.17304 17.93317 8565 ft 296 kts 83°
2026-05-06 12:41 54.17699 17.96769 8226 ft 296 kts 84°
2026-05-06 12:41 54.18093 18.00212 7875 ft 292 kts 83°
2026-05-06 12:42 54.18480 18.03568 7602 ft 285 kts 83°
2026-05-06 12:42 54.18905 18.06844 7374 ft 283 kts 75°
2026-05-06 12:42 54.19729 18.09913 7059 ft 287 kts 60°
2026-05-06 12:42 54.21010 18.12533 6877 ft 291 kts 44°
2026-05-06 12:43 54.22688 18.14579 6825 ft 300 kts 31°
2026-05-06 12:43 54.24488 18.16398 6753 ft 300 kts 31°
2026-05-06 12:43 54.26286 18.18206 6688 ft 300 kts 28°
2026-05-06 12:43 54.28199 18.19654 6620 ft 302 kts 22°
2026-05-06 12:44 54.30134 18.21028 6569 ft 299 kts 23°
2026-05-06 12:44 54.32088 18.22008 6454 ft 289 kts
2026-05-06 12:44 54.33994 18.21356 6331 ft 274 kts 328°
2026-05-06 12:44 54.35366 18.19310 6198 ft 253 kts 297°
2026-05-06 12:45 54.36101 18.16685 6053 ft 242 kts 286°
2026-05-06 12:45 54.36745 18.14015 5911 ft 242 kts 286°
2026-05-06 12:45 54.38027 18.08684 5755 ft 241 kts 286°
2026-05-06 12:46 54.38668 18.06020 5702 ft 242 kts 286°
2026-05-06 12:46 54.39311 18.03352 5653 ft 242 kts 288°
2026-05-06 12:46 54.39950 18.00686 5601 ft 241 kts 286°
2026-05-06 12:46 54.40591 17.98022 5547 ft 241 kts 286°
2026-05-06 12:47 54.41237 17.95366 5492 ft 241 kts 289°
2026-05-06 12:47 54.41878 17.92710 5444 ft 241 kts 288°
2026-05-06 12:47 54.42511 17.90048 5330 ft 241 kts 290°
2026-05-06 12:47 54.43270 17.87484 5188 ft 243 kts 309°
2026-05-06 12:48 54.44661 17.85956 5060 ft 238 kts 347°
2026-05-06 12:48 54.46278 17.86090 4942 ft 232 kts 27°
2026-05-06 12:48 54.47748 17.87155 5004 ft 227 kts 29°
2026-05-06 12:48 54.49172 17.88227 5012 ft 220 kts 36°
2026-05-06 12:49 54.50235 17.89973 5014 ft 209 kts 64°
2026-05-06 12:49 54.50662 17.92290 5012 ft 202 kts 90°
2026-05-06 12:49 54.50415 17.94637 5019 ft 201 kts 112°
2026-05-06 12:49 54.49872 17.96858 5005 ft 202 kts 114°
2026-05-06 12:50 54.49318 17.99141 5011 ft 210 kts 116°
2026-05-06 12:50 54.48764 18.01450 5011 ft 210 kts 116°
2026-05-06 12:50 54.48208 18.03761 4985 ft 209 kts 116°
2026-05-06 12:50 54.47648 18.06073 4674 ft 209 kts 114°
2026-05-06 12:51 54.47092 18.08367 4394 ft 207 kts 114°
2026-05-06 12:51 54.46542 18.10644 4126 ft 205 kts 113°
2026-05-06 12:51 54.45993 18.12907 3882 ft 206 kts 113°
2026-05-06 12:51 54.45443 18.15173 3610 ft 204 kts 111°
2026-05-06 12:52 54.44911 18.17363 3389 ft 191 kts 111°
2026-05-06 12:52 54.44417 18.19392 3280 ft 178 kts 111°
2026-05-06 12:52 54.43948 18.21317 3154 ft 173 kts 110°
2026-05-06 12:52 54.43486 18.23213 3032 ft 171 kts 110°
2026-05-06 12:53 54.43038 18.25057 2920 ft 162 kts 109°
2026-05-06 12:53 54.42617 18.26784 2781 ft 152 kts 107°
2026-05-06 12:53 54.42227 18.28374 2671 ft 139 kts 107°
2026-05-06 12:53 54.41858 18.29876 2587 ft 135 kts 107°
2026-05-06 12:54 54.41497 18.31349 2478 ft 133 kts 106°
2026-05-06 12:54 54.41139 18.32818 2246 ft 133 kts 105°
2026-05-06 12:54 54.40783 18.34271 2043 ft 132 kts 105°
2026-05-06 12:54 54.40549 18.35227 1901 ft 131 kts 105°
2026-05-06 12:55 54.40197 18.36664 1694 ft 130 kts 104°
2026-05-06 12:55 54.39732 18.38575 1405 ft 132 kts 104°
2026-05-06 12:55 54.39496 18.39557 1271 ft 132 kts 105°
2026-05-06 12:55 54.39018 18.41477 1001 ft 132 kts 102°
2026-05-06 12:56 54.38669 18.42933 800 ft 133 kts 105°
2026-05-06 12:56 54.38426 18.43912 667 ft 131 kts 107°
2026-05-06 12:56 54.38075 18.45342 504 ft 129 kts 102°
2026-05-06 12:56 54.37734 18.46729 457 ft 116 kts 111°
2026-05-06 12:57 54.37484 18.47758 467 ft 69 kts 114°
2026-05-06 12:57 54.37364 18.48243 480 ft 19 kts 115°
2026-05-06 12:57 54.37340 18.48324 483 ft 15 kts 116°
2026-05-06 12:57 54.37302 18.48556 490 ft 18 kts 75°
2026-05-06 12:58 54.37387 18.48650 491 ft 10 kts 19°
2026-05-06 12:58 54.37444 18.48590 486 ft 12 kts 291°
2026-05-06 12:58 54.37489 18.48424 478 ft 19 kts 295°
2026-05-06 12:58 54.37547 18.48182 470 ft 25 kts 290°
2026-05-06 12:59 54.37615 18.47912 470 ft 23 kts 294°
2026-05-06 12:59 54.37687 18.47639 465 ft 28 kts 292°
2026-05-06 12:59 54.37763 18.47330 460 ft 25 kts 293°
2026-05-06 12:59 54.37828 18.47069 458 ft 25 kts 293°
2026-05-06 13:00 54.37891 18.46801 459 ft 21 kts 291°
2026-05-06 13:00 54.37946 18.46604 459 ft 12 kts 314°
2026-05-06 13:00 54.38028 18.46610 457 ft 13 kts 22°
2026-05-06 13:00 54.38065 18.46601 460 ft 3 kts 334°
2026-05-06 13:01 54.38106 18.46612 459 ft 6 kts 22°
2026-05-06 13:01 54.38116 18.46619 460 ft 0 kts 23°